Location: Peterborough
(44.3091°N, 78.3197°W)
Time: 05:16:11
(UTC-04:00)

Vanguard 2 - Pass Details

Date: 27 March 2023
Orbit: 552 x 2926 km, 32.9° (Epoch: 04 June)

Event Time Altitude Azimuth Distance (km) Brightness Sun altitude
Rises 02:56:11 0° 181° (S) 6,403 - -38.4°
Reaches altitude 10° 03:03:54 10° 159° (SSE) 5,664 - -37.6°
Exits shadow 03:05:26 11° 154° (SSE) 5,572 11.6 -37.5°
Maximum altitude 03:11:00 14° 135° (SE) 5,421 11.7 -36.9°
Drops below altitude 10° 03:18:03 10° 111° (ESE) 5,669 12.1 -36.1°
Sets 03:25:36 0° 90° (E) 6,422 12.7 -35.3°
